Weather History for Yakima, WA

Change the Weather History Date:

Wednesday, May 29, 2013

  Actual Average Record
Temperature  
Mean Temperature 57 °F 60 °F  
Max Temperature 66 °F 76 °F 101 °F (1983)
Min Temperature 47 °F 45 °F 29 °F (2001)
Degree Days  
Heating Degree Days 8 6  
Month to date heating degree days 174 251  
Since 1 July heating degree days 5130 5933  
Cooling Degree Days 0 1  
Month to date cooling degree days 51 18  
Year to date cooling degree days 52 19  
Growing Degree Days 8 (Base 50)    
Moisture  
Dew Point 46 °F    
Average Humidity 63    
Maximum Humidity 86    
Minimum Humidity 40    
Precipitation  
Precipitation 0.31 in 0.02 in 0.31 in (2013)
Month to date precipitation 2.48 0.54  
Year to date precipitation 3.78 3.63  
Snow  
Snow 0.00 in 0.00 in 0.00 in (2002)
Month to date snowfall 0.0 0.0  
Year to date snowfall 1.1 8.6  
Since 1 July snowfall 15.3 21.6  
Snow Depth 0.00 in    
Sea Level Pressure  
Sea Level Pressure 29.76 in    
Wind  
Wind Speed 6 mph (WNW)    
Max Wind Speed 23 mph    
Max Gust Speed 30 mph    
Visibility 9 miles    
Events Rain    
T = Trace of Precipitation, MM = Missing Value Source: NWS Daily Summary

Daily Weather History Graph

Daily Weather History Graph

Search for Another Location

Airport:

Trip Planner

Search our weather history database for the weather conditions in past years. The results will help you decide how hot, cold, wet, or windy it might be!

Date:

Astronomy

May. 29, 2013 Rise Set
Actual Time 5:14 AM PDT 8:45 PM PDT
Civil Twilight 4:36 AM PDT 9:23 PM PDT
Nautical Twilight 3:46 AM PDT 10:13 PM PDT
Astronomical Twilight 2:41 AM PDT 11:19 PM PDT
Moon 12:02 AM PDT (5/29) 10:30 AM PDT (5/29)
Length of Visible Light 16h 46m
Length of Day
15h 30m
Waning Gibbous, 72% of the Moon is Illuminated
May 29
Waning Gibbous
May 31
Last Quarter
Jun 8
New
Jun 16
First Quarter
Jun 23
Full

Hourly Weather History & Observations

Time (PDT) Temp. Dew Point Humidity Pressure Visibility Wind Dir Wind Speed Gust Speed Precip Events Conditions
12:53 AM 46.9 °F 41.0 °F 80% 29.72 in 10.0 mi Calm Calm - N/A   Partly Cloudy
1:53 AM 50.0 °F 43.0 °F 77% 29.70 in 10.0 mi North - - N/A   Clear
2:53 AM 50.0 °F 43.0 °F 77% 29.69 in 10.0 mi NW 6.9 mph - N/A   Mostly Cloudy
3:53 AM 50.0 °F 44.1 °F 80% 29.70 in 7.0 mi WNW 5.8 mph - 0.01 in Rain Light Rain
4:53 AM 50.0 °F 46.0 °F 86% 29.70 in 6.0 mi WSW 4.6 mph - 0.11 in Rain Light Rain
5:53 AM 50.0 °F 46.9 °F 89% 29.69 in 6.0 mi Calm Calm - 0.09 in Rain Light Rain
6:53 AM 50.0 °F 46.9 °F 89% 29.69 in 10.0 mi WSW 4.6 mph - 0.02 in   Overcast
7:53 AM 52.0 °F 46.9 °F 83% 29.69 in 10.0 mi West 3.5 mph - N/A   Overcast
8:53 AM 55.0 °F 48.9 °F 80% 29.70 in 10.0 mi Calm Calm - N/A   Mostly Cloudy
9:53 AM 55.9 °F 48.0 °F 75% 29.71 in 10.0 mi Calm Calm - N/A   Mostly Cloudy
10:05 AM 55.4 °F 48.2 °F 77% 29.71 in 10.0 mi East 3.5 mph - N/A   Mostly Cloudy
10:53 AM 57.9 °F 48.0 °F 70% 29.72 in 10.0 mi Calm Calm - N/A   Overcast
11:53 AM 60.1 °F 46.9 °F 62% 29.74 in 10.0 mi Calm Calm - N/A   Overcast
12:18 PM 59.0 °F 48.2 °F 67% 29.73 in 10.0 mi East 3.5 mph - 0.00 in Rain Light Rain
12:53 PM 59.0 °F 48.9 °F 69% 29.74 in 10.0 mi North 5.8 mph - 0.00 in Rain Light Rain
1:24 PM 55.4 °F 51.8 °F 88% 29.75 in 3.0 mi North 6.9 mph - 0.03 in Rain Rain
1:53 PM 57.0 °F 51.1 °F 81% 29.75 in 9.0 mi South 3.5 mph - 0.06 in Rain Light Rain
2:41 PM 59.0 °F 53.6 °F 82% 29.74 in 10.0 mi SE 6.9 mph - 0.01 in   Scattered Clouds
2:53 PM 61.0 °F 54.0 °F 78% 29.75 in 10.0 mi ESE 5.8 mph - 0.01 in   Mostly Cloudy
3:53 PM 63.0 °F 51.1 °F 65% 29.77 in 10.0 mi ESE 3.5 mph - N/A   Mostly Cloudy
4:53 PM 63.0 °F 48.0 °F 58% 29.78 in 10.0 mi Calm Calm - 0.00 in Rain Light Rain
5:53 PM 64.9 °F 42.1 °F 43% 29.78 in 10.0 mi WNW 19.6 mph 24.2 mph 0.01 in   Scattered Clouds
6:53 PM 64.0 °F 39.9 °F 41% 29.80 in 10.0 mi WNW 17.3 mph 21.9 mph N/A   Mostly Cloudy
7:53 PM 59.0 °F 39.0 °F 48% 29.83 in 10.0 mi WNW 12.7 mph 26.5 mph N/A   Mostly Cloudy
8:53 PM 55.9 °F 39.0 °F 53% 29.85 in 10.0 mi WNW 12.7 mph - N/A   Mostly Cloudy
9:53 PM 54.0 °F 39.0 °F 57% 29.89 in 10.0 mi West 8.1 mph - N/A   Clear
10:53 PM 53.1 °F 39.9 °F 61% 29.91 in 10.0 mi NW 5.8 mph - N/A   Clear
11:53 PM 53.1 °F 39.9 °F 61% 29.92 in 10.0 mi NW 5.8 mph - N/A   Scattered Clouds